Temperature
8 6 6 7 7 8 8 8 8 9 9 8 8 8 8 9 9 9 9 9 10 10 10 10 10 10 10 10 10 10 10 10 10 10 10 10 10 10 9 9 9 9 9 9
6 6 7 7 8 8 8 8 8 8 8 8 7 7 8 8 8 9 9 9 9 9 9 9 9 9 9 9 9 9 9 9 9 9 9 9 9 9 9 9 9 9 9 8
6 7 7 8 7 8 7 7 7 7 7 7 7 7 8 8 8 9 9 9 9 9 9 9 9 9 9 9 9 9 9 9 9 8 8 8 8 8 8 8 8 8 8 8
6 6 7 7 7 7 7 7 7 7 6 6 7 6 7 7 7 7 8 8 9 8 8 8 8 8 8 8 8 8 8 8 8 8 8 8 8 8 8 8 8 8 7 7
5 6 6 7 7 7 7 7 7 7 6 5 5 5 6 6 7 7 7 8 8 8 8 8 8 8 8 8 8 7 7 7 7 7 7 7 7 7 7 7 7 7 7 7
5 6 6 6 7 7 6 6 6 4 4 5 5 5 6 6 7 7 7 8 8 8 8 8 8 8 8 7 7 7 7 7 7 7 7 7 6 6 6 6 6 7 6 6
5 6 6 6 6 6 6 5 4 5 4 5 5 5 6 6 6 7 7 7 8 8 8 7 7 7 7 7 7 7 7 6 6 6 6 6 6 6 6 6 6 6 6 6
5 5 5 5 6 5 5 5 5 5 4 4 5 5 6 6 6 7 7 7 7 7 7 7 7 7 6 6 6 6 6 6 6 5 5 5 5 5 5 5 5 5 5 5
4 5 5 5 6 6 5 4 5 4 3 3 4 4 5 6 5 5 6 6 6 6 6 6 6 6 6 6 6 5 5 5 5 5 5 5 4 4 4 4 4 4 4 4
4 4 4 5 5 5 5 4 3 3 4 5 5 5 5 5 5 5 5 5 6 6 6 6 6 6 5 5 5 5 5 5 4 4 4 4 4 3 3 3 3 3 4 3
4 3 3 4 4 4 4 4 3 2 3 4 4 5 6 5 5 5 5 5 5 5 5 5 5 5 5 5 4 4 4 4 4 3 3 3 3 3 3 3 3 3 3 3
3 2 2 3 3 4 4 4 3 3 3 2 2 4 6 4 4 5 5 5 5 5 5 5 5 4 4 4 4 3 3 3 3 3 3 3 3 2 2 2 2 2 2 2
2 2 2 3 3 3 3 3 2 2 2 1 2 5 5 4 4 4 4 4 5 5 5 4 4 4 4 4 3 3 3 3 2 2 2 2 2 2 2 2 2 2 2 1
3 1 2 3 3 2 2 2 2 2 2 1 2 4 5 4 3 3 4 4 4 4 4 4 3 3 3 3 3 3 2 2 2 2 1 1 1 1 1 1 1 1 1 1
1 0 -0 1 2 1 2 2 2 1 2 2 3 3 4 4 3 3 4 4 4 4 3 3 3 3 3 3 2 2 2 2 1 1 1 1 1 1 1 1 0 0 0 0
-0 -0 -0 0 1 1 1 2 2 2 2 2 2 3 3 4 3 3 3 3 3 3 3 3 3 2 2 2 2 2 2 1 1 1 1 0 0 0 0 0 0 -0 -0 -0
-1 -1 -0 0 0 1 1 2 1 1 1 1 2 3 2 2 2 2 2 2 2 2 2 2 2 2 2 2 1 1 1 1 0 0 0 -0 -0 -0 -0 -0 -0 -0 -0 -0
-1 -1 -1 -1 -0 1 3 2 1 1 1 1 1 1 1 1 1 2 2 2 1 1 1 1 1 1 1 1 1 1 1 0 0 -0 -0 -0 -1 -1 -1 -1 -1 -1 -1 -1
-1 -1 -1 -1 -1 0 2 1 1 1 1 0 0 1 1 1 0 1 1 1 1 1 1 1 1 1 0 0 0 0 -0 -0 -0 -0 -1 -1 -1 -1 -1 -1 -1 -1 -1 -1
-2 -2 -2 -2 -1 0 2 1 1 1 1 1 -0 -0 -0 -0 -1 -0 1 0 1 0 0 0 0 0 0 -0 -0 -1 -1 -1 -1 -1 -1 -1 -2 -2 -2 -2 -2 -2 -2 -2
-2 -2 -2 -2 -2 -0 1 0 1 1 1 1 1 0 -0 -1 -1 -0 -0 -0 -0 -0 -0 -0 -0 -0 -0 -1 -1 -1 -1 -1 -1 -2 -2 -2 -2 -2 -2 -2 -2 -2 -2 -2
-2 -2 -3 -2 -2 -0 -0 -0 0 1 1 1 1 0 -0 -0 -0 -0 -0 -0 -0 -0 -1 -1 -1 -1 -1 -1 -1 -2 -2 -2 -2 -2 -2 -2 -2 -2 -2 -3 -3 -3 -3 -3
-2 -2 -2 -1 -0 -0 0 1 1 1 1 1 1 0 0 -0 -1 -1 -1 -1 -1 -1 -1 -1 -1 -1 -1 -2 -2 -2 -2 -2 -2 -2 -2 -2 -2 -3 -3 -3 -3 -3 -3 -3
-3 -3 -3 -3 -2 -1 -0 0 1 1 1 1 0 0 -0 -1 -1 -1 -1 -1 -1 -1 -1 -2 -2 -2 -2 -2 -2 -3 -3 -3 -3 -3 -3 -3 -3 -3 -3 -3 -3 -3 -3 -4
-2 -3 -3 -3 -3 -2 -1 0 1 1 0 0 -0 -0 -0 -1 -1 -1 -2 -2 -2 -2 -2 -2 -2 -2 -2 -3 -3 -3 -3 -3 -3 -3 -3 -3 -3 -3 -3 -3 -3 -4 -4 -4
-3 -3 -2 -1 -1 -2 -0 1 1 0 -0 -0 -1 -1 -1 -1 -2 -2 -2 -2 -2 -2 -2 -2 -2 -3 -3 -3 -3 -3 -3 -4 -4 -4 -3 -3 -4 -4 -4 -4 -4 -4 -4 -4
Wind_Speed
1 3 4 7 6 4 4 4 5 5 2 2 7 10 11 8 5 7 6 6 5 4 3 1 2 2 2 2 2 1 1 1 2 1 1 1 0 0 0 1 1 1 1 2
2 3 6 4 4 3 2 2 3 4 2 2 6 10 9 7 6 7 7 6 6 3 1 1 2 3 2 2 1 2 1 1 1 0 0 1 1 0 1 0 1 1 1 1
6 4 3 3 2 3 4 5 4 4 4 3 3 7 6 5 3 3 4 4 4 5 4 3 2 3 2 1 1 1 1 1 1 1 1 2 2 2 1 1 1 1 2 2
3 3 2 3 4 4 5 5 4 2 1 4 0 5 7 4 3 3 4 3 4 4 4 4 3 3 2 2 1 2 2 2 2 2 2 1 0 1 2 2 2 2 2 2
3 2 2 3 4 4 4 2 2 2 2 3 2 3 8 3 4 6 5 5 5 5 6 5 4 4 3 2 2 2 2 2 2 2 2 1 0 1 2 2 2 2 2 2
2 2 2 3 2 2 2 3 3 3 2 4 5 5 7 4 7 5 4 4 5 5 5 4 3 3 3 2 2 2 2 2 2 2 2 1 0 1 2 3 3 3 3 2
2 2 2 1 1 1 2 4 2 3 2 6 3 4 9 7 6 7 7 6 5 5 4 3 3 3 2 2 1 2 2 2 1 1 1 1 1 2 2 3 3 3 3 3
2 4 3 2 4 4 4 5 6 5 5 5 2 6 7 5 3 3 5 5 4 3 3 3 3 3 2 2 1 1 1 1 1 1 1 1 2 1 2 3 3 3 3 4
5 5 2 2 1 4 4 4 4 4 1 3 6 6 6 1 0 2 3 3 3 3 3 3 3 3 2 2 1 1 1 1 1 1 1 2 2 2 2 3 2 2 3 3
4 3 3 2 1 0 3 5 4 4 3 4 6 5 5 5 5 4 4 4 3 2 2 3 2 2 1 1 1 1 1 0 1 1 1 2 2 2 2 2 3 3 3 3
2 3 2 1 4 5 3 3 4 4 4 4 4 7 5 7 7 7 6 5 4 4 3 3 2 1 1 1 2 1 1 1 2 2 1 2 2 2 2 3 3 3 3 3
3 3 3 6 4 3 4 5 6 4 5 4 4 7 4 4 5 5 4 4 4 4 4 3 2 2 1 1 1 0 1 1 2 2 2 2 2 3 3 3 3 3 3 3
4 3 0 4 2 1 3 4 5 4 3 5 5 7 3 1 0 2 3 4 4 3 3 2 2 2 2 2 1 1 1 1 2 2 1 2 2 3 3 3 3 3 3 4
3 3 6 8 6 4 5 5 5 5 5 6 9 10 8 5 4 3 3 4 3 3 3 3 2 2 2 2 2 2 2 1 1 1 1 2 3 3 3 3 3 3 3 4
3 4 4 6 6 3 6 8 8 10 9 9 10 10 12 7 6 5 4 4 3 3 3 3 3 2 2 2 2 2 2 1 1 1 2 3 3 3 3 3 3 3 4 4
2 3 2 4 5 5 7 10 10 11 10 11 11 13 10 6 4 4 5 4 4 5 4 4 3 3 3 3 3 2 2 2 1 1 2 3 3 3 3 3 3 3 4 4
3 4 2 3 3 3 7 9 10 7 7 8 11 11 6 5 5 5 5 5 4 4 4 4 3 3 3 2 2 2 2 1 1 2 3 3 3 3 4 4 4 4 4 4
6 4 3 1 1 6 7 2 5 7 7 8 7 7 6 6 6 5 4 4 4 4 3 3 3 2 2 2 1 1 1 1 1 2 3 3 3 4 4 3 4 4 4 4
5 5 3 2 3 7 7 3 3 5 6 6 8 8 6 4 3 3 1 1 3 3 4 3 3 2 2 1 1 0 1 1 1 3 3 4 3 4 4 4 4 4 4 4
2 4 4 3 3 6 6 2 1 2 5 4 4 5 4 0 2 4 2 2 2 2 1 2 1 1 1 1 1 0 1 2 3 3 4 4 4 4 4 4 4 4 4 5
3 3 5 6 6 8 5 2 2 3 6 2 3 3 3 3 5 3 2 2 2 2 1 1 1 1 2 1 1 1 1 3 4 4 4 4 4 4 4 4 4 4 4 5
8 6 7 6 6 9 3 4 5 6 2 1 2 2 2 3 3 2 2 2 1 1 1 1 1 1 1 1 1 1 3 4 3 3 3 4 4 4 3 3 4 4 4 4
8 8 6 9 8 4 4 6 4 2 3 3 2 3 2 2 3 3 2 2 2 1 1 1 1 1 2 1 1 2 3 3 2 3 3 4 4 4 3 3 3 4 3 3
4 3 4 5 7 6 5 4 4 4 4 4 3 3 3 3 3 3 2 2 2 2 2 2 1 1 3 2 2 3 3 2 2 3 3 3 3 3 3 3 3 3 3 4
6 5 4 6 6 4 5 6 6 5 3 3 3 3 4 4 4 3 3 3 2 2 2 2 2 3 4 3 3 3 2 2 2 3 3 3 3 3 3 3 3 4 4 4
6 7 7 8 7 6 6 5 5 5 5 5 4 3 3 3 4 3 3 3 2 2 2 2 3 3 4 3 3 3 2 2 2 2 3 2 2 3 3 3 4 5 5 7
Wind_Direction
90 100 198 213 208 205 190 205 245 259 273 248 249 261 271 269 245 239 229 214 217 226 235 181 144 138 115 89 84 92 86 54 85 87 87 92 300 263 215 293 304 291 265 242
70 244 241 225 206 211 218 236 263 292 314 266 269 274 273 258 232 223 217 208 206 209 200 124 129 115 117 108 82 71 88 60 53 73 196 178 175 213 217 321 326 299 288 263
188 237 235 197 192 201 230 219 233 256 327 332 314 297 275 277 246 221 213 201 193 188 184 179 144 128 121 114 112 79 64 64 37 28 50 43 40 17 2 336 288 303 303 271
227 264 226 186 213 191 235 227 221 227 325 282 234 281 277 259 266 240 234 215 199 189 180 177 158 141 142 156 124 79 64 56 43 53 71 82 64 277 275 277 279 296 300 294
235 227 196 212 222 186 215 223 212 210 187 286 248 222 281 269 244 242 229 214 201 191 181 181 176 163 151 136 113 78 63 55 48 49 57 66 344 282 299 307 304 307 306 298
232 250 213 213 230 187 164 54 45 53 90 263 226 198 272 239 222 216 212 204 198 192 184 185 175 139 125 113 93 83 73 47 42 41 42 52 323 305 319 312 304 307 307 296
307 286 267 166 120 55 94 100 34 351 321 248 223 212 252 251 228 202 198 200 198 189 177 172 164 151 143 131 104 83 80 38 16 23 10 339 302 283 267 280 284 291 296 299
190 264 237 202 180 186 198 158 165 204 232 271 264 234 255 268 244 192 171 168 169 173 174 170 171 165 159 146 109 80 68 24 1 345 316 310 304 295 274 270 272 273 276 281
186 240 289 235 190 157 164 198 178 147 189 264 262 274 295 250 181 166 162 161 184 181 170 163 155 148 143 137 135 130 88 14 342 321 315 317 310 303 296 290 282 278 283 294
170 233 276 287 94 89 161 153 121 149 185 256 278 262 241 227 224 209 199 202 208 184 167 160 153 145 142 145 122 72 70 5 324 328 315 323 312 299 293 299 294 293 296 302
150 178 288 315 202 199 164 166 162 161 178 189 259 268 228 208 206 203 211 208 202 192 182 178 175 159 139 101 85 63 29 357 341 327 313 312 316 312 303 309 304 299 303 307
160 146 238 250 256 225 196 192 163 175 226 201 213 267 280 223 206 197 210 217 211 190 184 179 170 150 131 117 92 41 328 313 303 302 312 316 321 321 317 313 314 309 305 307
150 141 37 334 321 269 229 211 189 167 161 191 206 261 319 345 212 211 216 230 216 195 182 170 167 174 181 188 208 253 277 285 300 314 324 324 324 323 317 312 313 315 310 309
141 167 194 213 224 197 228 227 194 173 202 225 229 254 283 286 284 281 266 249 220 210 195 188 194 202 211 213 224 246 268 277 301 322 326 322 316 311 307 311 314 316 318 317
131 202 228 253 262 235 234 234 214 211 213 220 243 247 264 266 258 253 245 241 226 221 219 209 206 215 226 238 254 259 272 281 288 306 316 305 304 309 314 319 323 325 325 322
128 184 214 274 263 255 258 248 230 228 229 237 255 266 265 271 270 262 251 241 230 222 222 222 217 216 223 236 254 260 276 282 281 288 294 299 308 315 319 320 324 324 323 324
171 158 175 257 301 327 267 239 220 217 214 209 234 249 271 283 270 252 249 235 226 235 228 222 222 221 226 238 246 251 269 284 285 287 296 303 309 315 316 320 325 323 320 321
165 159 173 237 20 242 246 227 200 216 237 229 244 264 268 264 272 261 237 222 240 248 243 231 225 228 244 260 261 256 277 288 276 282 289 297 308 309 313 319 318 313 309 311
175 162 167 180 238 274 287 259 186 201 261 240 240 266 279 294 315 293 258 231 241 243 235 226 220 223 228 241 242 240 302 302 291 289 289 292 296 299 305 309 306 306 305 306
144 146 162 177 208 240 253 245 201 122 275 260 221 252 264 198 278 271 280 292 293 288 236 213 207 191 197 249 227 152 296 309 293 286 287 290 287 283 286 290 296 300 299 298
165 182 198 205 229 259 259 234 119 177 253 261 209 230 211 214 232 263 287 282 276 275 261 211 179 184 222 229 170 227 279 281 283 289 286 287 287 282 277 284 291 295 299 302
181 181 198 186 214 251 215 148 187 223 254 197 209 217 225 237 255 272 280 277 296 318 313 269 227 246 259 227 181 251 276 281 291 297 294 287 286 286 286 282 292 294 293 296
200 196 192 198 218 248 190 203 220 198 215 223 219 230 221 234 253 268 281 277 289 295 295 292 256 275 297 281 218 251 281 292 303 309 306 297 294 291 284 276 284 293 291 293
241 207 195 240 257 257 253 251 251 230 228 233 222 223 210 228 247 265 280 289 283 286 280 284 290 284 288 288 273 265 281 288 293 299 304 308 304 302 297 289 286 287 289 294
220 187 204 243 263 286 266 243 241 246 237 235 241 233 218 214 236 245 265 274 266 278 286 279 263 266 271 279 283 285 285 275 281 292 298 306 307 304 308 308 297 291 280 281
202 194 200 232 222 215 242 233 221 225 235 230 228 248 245 217 227 236 250 258 260 266 278 280 279 281 281 278 283 284 278 257 267 290 296 296 299 306 316 318 323 327 317 314
Height
1500 1504 1506 1504 1504 1503 1504 1506 1506 1503 1500 1501 1500 1496 1491 1488 1488 1488 1487 1488 1488 1488 1489 1490 1491 1492 1493 1493 1494 1494 1494 1494 1494 1494 1494 1493 1493 1494 1495 1495 1495 1495 1495 1495
1504 1505 1501 1501 1502 1503 1503 1506 1506 1503 1500 1500 1499 1496 1489 1486 1485 1484 1484 1484 1485 1486 1487 1488 1489 1489 1490 1491 1491 1492 1492 1492 1492 1492 1492 1491 1491 1492 1492 1492 1492 1492 1492 1491
1502 1501 1499 1500 1501 1502 1504 1506 1505 1505 1502 1500 1500 1495 1489 1484 1483 1482 1482 1482 1483 1484 1485 1486 1487 1487 1488 1489 1489 1489 1490 1490 1490 1490 1489 1489 1489 1488 1489 1488 1488 1488 1488 1488
1501 1499 1498 1499 1501 1501 1503 1501 1502 1503 1507 1508 1504 1505 1490 1485 1483 1481 1480 1480 1481 1482 1484 1484 1485 1485 1486 1487 1488 1488 1488 1488 1488 1487 1487 1486 1485 1485 1485 1485 1484 1484 1483 1483
1501 1499 1498 1499 1498 1499 1500 1499 1501 1503 1506 1510 1506 1508 1493 1485 1483 1480 1478 1478 1479 1481 1482 1482 1483 1484 1485 1486 1486 1486 1486 1486 1486 1486 1485 1484 1483 1483 1482 1481 1480 1480 1480 1479
1499 1497 1497 1497 1497 1497 1499 1501 1504 1507 1510 1510 1503 1506 1494 1486 1478 1476 1476 1477 1477 1478 1480 1481 1481 1482 1483 1483 1484 1484 1484 1484 1484 1483 1483 1481 1480 1479 1478 1477 1476 1476 1476 1475
1500 1498 1496 1496 1497 1498 1500 1507 1515 1514 1518 1509 1500 1500 1490 1477 1474 1473 1474 1475 1476 1477 1478 1478 1479 1479 1480 1481 1481 1482 1482 1481 1481 1481 1480 1479 1478 1477 1475 1474 1473 1472 1471 1471
1503 1503 1497 1495 1496 1498 1500 1502 1511 1514 1515 1509 1501 1498 1484 1474 1471 1471 1471 1473 1474 1475 1476 1476 1477 1477 1478 1479 1479 1479 1479 1479 1479 1478 1477 1477 1475 1474 1472 1471 1470 1469 1468 1467
1502 1500 1496 1494 1494 1495 1499 1503 1502 1510 1513 1513 1501 1492 1480 1473 1472 1471 1471 1472 1473 1473 1474 1475 1475 1476 1476 1477 1477 1477 1477 1477 1476 1476 1474 1473 1472 1471 1469 1468 1466 1465 1464 1463
1498 1502 1497 1495 1495 1495 1496 1499 1506 1509 1509 1506 1497 1491 1483 1475 1473 1472 1471 1471 1471 1472 1472 1473 1473 1474 1475 1475 1475 1475 1475 1474 1474 1473 1471 1470 1469 1468 1466 1464 1463 1461 1460 1460
1497 1502 1500 1498 1497 1496 1498 1500 1501 1507 1508 1507 1503 1488 1470 1469 1468 1469 1469 1469 1469 1470 1470 1471 1472 1472 1473 1473 1473 1472 1472 1471 1470 1469 1468 1467 1466 1464 1463 1461 1459 1458 1457 1456
1496 1501 1503 1499 1495 1494 1494 1495 1499 1504 1505 1506 1506 1488 1466 1466 1466 1467 1467 1468 1468 1469 1469 1470 1470 1470 1470 1470 1470 1470 1469 1468 1467 1466 1465 1464 1462 1461 1459 1457 1456 1455 1454 1453
1495 1500 1503 1499 1499 1496 1495 1493 1495 1498 1502 1505 1501 1483 1467 1465 1465 1466 1466 1466 1466 1467 1467 1468 1468 1468 1468 1468 1467 1467 1466 1465 1464 1463 1462 1460 1459 1457 1456 1454 1453 1451 1450 1449
1492 1498 1499 1495 1491 1492 1494 1492 1493 1496 1499 1498 1491 1478 1468 1466 1466 1465 1465 1465 1465 1465 1465 1465 1465 1465 1465 1465 1465 1464 1463 1462 1461 1460 1458 1457 1455 1454 1452 1451 1450 1448 1447 1446
1492 1497 1497 1494 1490 1490 1489 1487 1489 1490 1488 1488 1478 1475 1467 1465 1465 1464 1463 1463 1463 1463 1463 1462 1462 1463 1463 1463 1462 1461 1460 1460 1458 1457 1455 1454 1452 1451 1449 1448 1446 1445 1444 1443
1492 1495 1496 1493 1488 1487 1485 1481 1482 1482 1481 1480 1476 1470 1462 1463 1462 1462 1461 1460 1460 1459 1460 1460 1460 1460 1460 1460 1459 1458 1457 1457 1455 1454 1452 1451 1449 1448 1446 1445 1443 1442 1441 1440
1492 1494 1496 1493 1490 1487 1482 1474 1474 1474 1472 1472 1470 1464 1460 1461 1460 1459 1458 1457 1457 1457 1457 1457 1457 1457 1457 1456 1456 1455 1454 1454 1452 1451 1450 1448 1447 1445 1443 1442 1440 1439 1438 1436
1490 1492 1495 1495 1493 1488 1470 1466 1466 1467 1466 1466 1463 1460 1459 1458 1457 1456 1455 1455 1454 1454 1454 1454 1453 1453 1454 1453 1453 1452 1452 1450 1449 1448 1446 1445 1444 1442 1440 1439 1437 1436 1434 1433
1485 1489 1494 1496 1494 1482 1468 1464 1464 1466 1463 1460 1459 1457 1456 1456 1455 1453 1453 1452 1452 1452 1451 1451 1451 1451 1451 1450 1450 1449 1448 1447 1446 1445 1443 1442 1440 1439 1437 1435 1434 1433 1431 1430
1485 1486 1492 1494 1490 1481 1464 1461 1460 1463 1463 1456 1455 1455 1454 1454 1456 1452 1450 1450 1449 1449 1448 1448 1448 1448 1448 1447 1447 1446 1445 1444 1442 1441 1440 1439 1437 1435 1434 1432 1431 1429 1428 1426
1486 1487 1488 1489 1488 1473 1461 1459 1460 1466 1459 1453 1452 1452 1452 1452 1452 1450 1448 1447 1447 1446 1446 1445 1445 1444 1444 1444 1443 1442 1442 1441 1440 1438 1437 1435 1434 1432 1431 1429 1428 1427 1425 1423
1478 1483 1485 1485 1484 1471 1457 1458 1459 1455 1451 1451 1450 1450 1450 1449 1448 1447 1446 1445 1444 1444 1443 1443 1442 1441 1441 1441 1440 1439 1438 1438 1436 1435 1433 1432 1431 1429 1428 1426 1425 1423 1422 1419
1470 1468 1468 1468 1462 1454 1452 1451 1450 1450 1449 1448 1448 1448 1448 1446 1446 1445 1444 1443 1442 1442 1441 1440 1440 1439 1438 1438 1437 1436 1435 1434 1433 1431 1430 1429 1427 1426 1425 1423 1421 1420 1418 1416
1463 1461 1462 1461 1454 1451 1449 1448 1448 1447 1447 1446 1446 1446 1445 1444 1443 1443 1442 1441 1440 1439 1439 1438 1437 1436 1436 1435 1434 1434 1433 1431 1430 1428 1427 1425 1424 1423 1421 1420 1418 1417 1415 1413
1455 1457 1457 1456 1450 1448 1445 1445 1444 1444 1444 1443 1443 1443 1442 1441 1441 1440 1440 1439 1438 1437 1437 1436 1434 1433 1433 1432 1431 1431 1429 1428 1426 1425 1424 1422 1421 1419 1418 1417 1416 1414 1412 1411
1449 1450 1451 1446 1443 1443 1441 1441 1441 1441 1440 1440 1440 1439 1439 1438 1438 1437 1437 1436 1436 1435 1434 1433 1432 1431 1430 1429 1428 1427 1426 1425 1423 1422 1420 1419 1418 1416 1415 1414 1412 1411 1410 1408